Location: Eschertshofen
(49.3064°N, 11.5756°E)
Time: 13:04:35
(UTC+00:00)

Iridium 26 - Pass Details

Date: 29 September 2021
Orbit: 772 x 775 km, 86.4° (Epoch: 15 October)

Event Time Altitude Azimuth Distance (km) Brightness Sun altitude
Exits shadow 18:38:28 13° 54° (NE) 2,101 7.4 -17.3°
Drops below altitude 10° 18:39:45 10° 40° (NE) 2,331 7.8 -17.5°
Sets 18:43:02 0° 19° (NNE) 3,263 8.8 -18.0°
